Probability
0 0 0 0 0 0 0 0 0 0 0 0 0 0 0 0 0 0 0 0 0 0 0 0 0 0 0 0 0 0 0 0 0 0 0 0 0 0 0 0 0 0 0
0 0 0 0 0 0 0 0 0 0 0 0 0 0 0 0 0 0 0 0 0 0 0 0 0 0 0 0 0 0 0 0 0 0 0 0 0 0 0 0 0 0 0
0 0 0 0 0 0 0 0 0 0 0 0 0 0 0 0 0 0 0 0 0 0 0 0 0 0 0 0 0 0 0 0 0 0 0 0 0 0 0 0 0 0 0
0 0 0 0 0 0 0 0 0 0 0 0 0 0 0 0 0 0 0 0 0 0 0 0 0 0 0 0 0 0 0 0 0 0 0 0 0 0 0 0 0 0 0
0 0 0 0 0 0 0 0 0 0 0 0 0 0 0 0 0 0 0 0 0 0 0 0 0 0 0 0 0 0 0 0 0 0 0 0 0 0 0 0 0 0 0
0 0 0 0 0 0 0 0 0 0 0 0 0 0 0 0 0 0 0 0 0 0 0 0 0 0 0 0 0 0 0 0 0 0 0 0 0 0 0 0 0 0 0
0 0 0 0 0 0 0 0 0 0 0 0 0 0 0 0 0 0 0 0 0 0 0 0 0 0 0 0 0 0 0 0 0 0 0 0 0 0 0 0 0 0 0
0 0 0 0 0 0 0 0 0 0 0 0 0 0 0 0 0 0 0 0 0 0 0 0 0 0 0 0 0 0 0 0 0 0 0 0 0 0 0 0 0 0 0
0 0 0 0 0 0 0 0 0 0 0 0 0 0 0 0 0 0 0 0 0 0 0 0 0 0 0 0 0 0 0 0 0 0 0 0 0 0 0 0 0 0 0
0 0 0 0 0 0 0 0 0 0 0 0 0 0 0 0 0 0 0 0 0 0 0 0 0 0 0 0 0 0 0 0 0 0 0 0 0 0 0 0 0 0 0
0 0 0 0 0 0 0 0 0 0 0 0 0 0 0 0 0 0 0 0 0 0 0 0 0 0 0 0 0 0 0 0 0 0 0 0 0 0 0 0 0 0 0
0 0 0 0 0 0 0 0 0 0 0 0 0 0 0 0 0 0 0 0 0 0 0 0 0 0 0 0 0 0 0 0 0 0 0 0 0 0 0 0 0 0 0
0 0 0 0 0 0 0 0 0 0 0 0 0 0 0 0 0 0 0 0 0 0 0 0 0 0 0 0 0 0 0 0 0 0 0 0 0 0 0 0 0 0 0
0 0 0 0 0 0 0 0 0 0 0 0 0 0 0 0 0 0 0 0 0 0 0 0 0 0 0 0 0 0 0 0 0 0 0 0 0 0 0 0 0 0 0
0 0 0 0 0 0 0 0 0 0 0 0 0 0 0 0 0 0 0 0 0 0 0 0 0 0 0 0 0 0 0 0 0 0 0 0 0 0 0 0 0 0 0
0 0 0 0 0 0 0 0 0 0 0 0 0 0 0 0 0 0 0 0 0 0 0 0 0 0 0 0 0 0 0 0 0 0 0 0 0 0 0 0 0 0 0
0 0 0 0 0 0 0 0 0 0 0 0 0 0 0 0 0 0 0 0 0 0 0 0 0 0 0 0 0 0 0 0 0 0 0 0 0 0 0 0 0 0 0
0 0 0 0 0 0 0 0 0 0 0 0 0 0 0 0 0 0 0 0 0 0 0 0 0 0 0 0 0 0 0 0 0 0 0 0 0 0 0 0 0 0 0
0 0 0 0 0 0 0 0 0 0 0 0 0 0 0 0 0 0 0 0 0 0 0 0 0 0 0 0 0 0 0 0 0 0 0 0 0 0 0 0 0 0 0
0 0 0 0 0 0 0 0 0 0 0 0 0 0 0 0 0 0 0 0 0 0 0 0 0 0 0 0 0 0 0 0 0 0 0 0 0 0 0 0 0 0 0
0 0 0 0 0 0 0 0 0 0 0 0 0 0 0 0 0 0 0 0 0 0 0 0 0 0 0 0 0 0 0 0 0 0 0 0 0 0 0 0 0 0 0
0 0 0 0 0 0 0 0 0 0 0 0 0 0 0 0 0 0 0 0 0 0 0 0 0 0 0 0 0 0 0 0 0 0 0 0 0 0 0 0 0 0 0
0 0 0 0 0 0 0 0 0 0 0 0 0 0 0 0 0 0 0 0 0 0 0 0 0 0 0 0 0 0 0 0 0 0 0 0 0 0 0 0 0 0 0
0 0 0 0 0 0 0 0 0 0 0 0 0 0 0 0 0 0 0 0 0 0 0 0 0 0 0 0 0 0 0 0 0 0 0 0 0 0 0 0 0 0 0
0 0 0 0 0 0 0 0 0 0 0 0 0 0 0 0 0 0 0 0 0 0 0 0 0 0 0 0 0 0 0 0 0 0 0 0 0 0 0 0 0 0 0
0 0 0 0 0 0 0 0 0 0 0 0 0 0 0 0 0 0 0 0 0 0 0 0 0 0 0 0 0 0 0 0 0 0 0 0 0 0 0 0 0 0 0
Height
5813 5805 5796 5787 5776 5765 5753 5741 5728 5713 5698 5681 5664 5645 5627 5609 5592 5576 5562 5548 5536 5523 5511 5499 5488 5477 5466 5456 5447 5439 5433 5428 5424 5424 5425 5427 5427 5429 5434 5440 5449 5460 5476
5807 5798 5789 5779 5768 5756 5744 5731 5717 5702 5686 5669 5651 5633 5614 5597 5580 5565 5550 5536 5523 5510 5498 5485 5473 5461 5450 5439 5428 5419 5412 5408 5403 5402 5404 5408 5410 5409 5414 5419 5426 5436 5450
5800 5791 5781 5771 5759 5747 5735 5721 5707 5691 5675 5657 5639 5620 5602 5585 5569 5554 5540 5525 5512 5498 5485 5472 5458 5445 5432 5420 5409 5399 5392 5387 5383 5380 5381 5385 5390 5393 5397 5400 5406 5415 5427
5794 5784 5774 5763 5751 5739 5726 5712 5697 5681 5664 5646 5628 5609 5592 5576 5560 5545 5530 5515 5501 5487 5473 5458 5444 5429 5415 5402 5390 5378 5369 5363 5360 5359 5359 5363 5369 5375 5380 5383 5389 5397 5406
5787 5778 5767 5756 5744 5731 5717 5702 5687 5670 5653 5635 5617 5599 5582 5565 5550 5535 5521 5506 5491 5476 5461 5446 5430 5415 5400 5385 5372 5359 5349 5341 5337 5337 5338 5342 5348 5355 5363 5369 5373 5380 5389
5781 5771 5760 5748 5736 5723 5708 5693 5677 5661 5643 5625 5607 5589 5573 5557 5542 5527 5513 5498 5483 5467 5451 5434 5418 5402 5387 5371 5357 5343 5332 5323 5318 5316 5318 5323 5330 5337 5346 5353 5359 5365 5373
5775 5765 5753 5741 5728 5715 5700 5685 5668 5652 5634 5616 5598 5581 5565 5549 5534 5519 5505 5490 5474 5458 5442 5425 5408 5392 5376 5359 5344 5331 5319 5309 5303 5300 5301 5305 5312 5320 5330 5339 5346 5352 5360
5769 5758 5747 5734 5721 5707 5692 5677 5660 5644 5626 5608 5590 5573 5557 5542 5527 5512 5497 5481 5466 5450 5433 5416 5399 5383 5366 5350 5336 5322 5310 5299 5292 5287 5287 5291 5298 5306 5315 5325 5333 5341 5348
5763 5752 5740 5727 5714 5700 5685 5669 5653 5636 5619 5601 5584 5567 5551 5535 5520 5505 5490 5475 5459 5443 5426 5409 5393 5376 5360 5344 5330 5317 5304 5293 5284 5279 5277 5280 5286 5294 5303 5313 5322 5330 5338
5757 5746 5734 5721 5707 5693 5678 5662 5646 5629 5612 5595 5577 5561 5545 5529 5514 5499 5484 5469 5453 5437 5421 5405 5388 5372 5356 5341 5327 5314 5301 5290 5281 5274 5272 5274 5279 5286 5294 5303 5312 5320 5328
5751 5740 5727 5714 5701 5686 5671 5656 5640 5623 5606 5588 5572 5555 5540 5524 5509 5494 5480 5465 5449 5434 5418 5401 5385 5369 5354 5339 5325 5312 5300 5289 5280 5274 5272 5273 5276 5281 5288 5296 5304 5312 5321
5746 5734 5721 5708 5694 5680 5665 5650 5634 5617 5600 5583 5567 5551 5535 5520 5505 5491 5476 5461 5446 5430 5415 5399 5383 5367 5352 5338 5324 5312 5300 5290 5282 5277 5275 5275 5277 5280 5285 5291 5298 5306 5314
5740 5728 5715 5702 5688 5674 5659 5644 5628 5612 5595 5578 5562 5547 5531 5517 5502 5488 5473 5458 5444 5428 5413 5398 5382 5367 5352 5338 5325 5312 5302 5293 5286 5282 5279 5279 5279 5281 5285 5289 5295 5301 5309
5735 5723 5710 5697 5683 5669 5654 5638 5623 5607 5591 5574 5559 5543 5528 5514 5499 5485 5471 5456 5442 5428 5413 5397 5382 5367 5353 5339 5326 5315 5305 5297 5291 5286 5284 5283 5282 5283 5285 5289 5293 5298 5305
5730 5718 5705 5692 5678 5664 5649 5634 5618 5603 5587 5571 5555 5540 5525 5511 5497 5483 5469 5455 5441 5427 5412 5398 5383 5369 5355 5342 5329 5318 5309 5301 5295 5291 5288 5286 5285 5285 5286 5289 5292 5296 5301
5726 5713 5700 5687 5673 5659 5644 5629 5614 5599 5583 5568 5553 5538 5523 5509 5495 5482 5468 5454 5440 5427 5413 5399 5385 5371 5358 5345 5333 5322 5313 5305 5299 5294 5291 5288 5287 5286 5287 5288 5291 5294 5299
5722 5709 5696 5683 5669 5655 5640 5626 5611 5596 5580 5565 5550 5535 5521 5507 5494 5480 5467 5454 5441 5427 5414 5400 5387 5374 5361 5348 5337 5326 5316 5308 5302 5297 5293 5290 5288 5287 5287 5288 5290 5293 5297
5718 5705 5692 5679 5665 5651 5637 5622 5608 5593 5578 5563 5548 5534 5520 5506 5493 5480 5467 5454 5441 5428 5415 5402 5389 5376 5364 5352 5340 5329 5320 5311 5304 5298 5294 5291 5288 5287 5286 5287 5289 5292 5295
5715 5702 5689 5675 5661 5647 5634 5619 5605 5590 5576 5561 5547 5533 5519 5505 5492 5480 5467 5454 5441 5429 5416 5404 5391 5379 5367 5355 5344 5333 5323 5314 5306 5300 5295 5291 5289 5287 5286 5286 5288 5290 5293
5711 5698 5685 5672 5658 5644 5630 5616 5602 5588 5574 5560 5545 5531 5518 5505 5492 5479 5467 5454 5442 5429 5417 5405 5393 5381 5370 5358 5347 5337 5327 5317 5308 5301 5296 5291 5288 5286 5285 5285 5287 5289 5292
5707 5695 5682 5669 5655 5641 5627 5614 5600 5586 5572 5558 5544 5530 5517 5504 5492 5479 5467 5455 5442 5429 5417 5406 5394 5383 5372 5361 5351 5340 5330 5320 5312 5304 5297 5292 5288 5285 5284 5284 5285 5287 5290
5703 5691 5679 5666 5652 5638 5625 5611 5598 5584 5570 5557 5543 5530 5517 5504 5491 5479 5467 5455 5443 5431 5419 5408 5397 5386 5375 5365 5354 5344 5333 5324 5315 5307 5299 5293 5288 5285 5283 5283 5284 5285 5288
5700 5688 5676 5663 5649 5636 5622 5609 5595 5582 5568 5555 5542 5529 5515 5503 5491 5479 5467 5456 5444 5433 5422 5411 5400 5389 5379 5368 5358 5347 5337 5327 5318 5310 5302 5295 5289 5285 5283 5282 5282 5284 5286
5696 5684 5672 5660 5647 5633 5620 5606 5593 5580 5567 5554 5540 5527 5514 5502 5490 5479 5468 5457 5446 5435 5424 5413 5402 5391 5381 5371 5361 5350 5340 5331 5321 5312 5304 5297 5291 5286 5283 5282 5282 5283 5285
5691 5680 5669 5657 5644 5631 5617 5604 5591 5578 5565 5552 5539 5526 5513 5501 5489 5478 5468 5457 5446 5436 5425 5414 5403 5393 5383 5372 5361 5352 5342 5333 5324 5315 5307 5299 5293 5288 5284 5282 5281 5281 5283
5687 5676 5665 5653 5641 5628 5615 5602 5589 5576 5564 5551 5538 5526 5513 5501 5488 5477 5466 5455 5446 5435 5424 5414 5403 5393 5383 5373 5364 5354 5345 5335 5326 5318 5310 5302 5295 5289 5285 5282 5281 5281 5282
Wind_Speed
40 43 46 50 54 58 62 65 69 73 76 80 83 85 85 82 78 74 70 68 66 64 62 61 60 60 59 59 59 58 56 55 55 54 52 52 54 58 63 69 77 86 93
41 45 48 52 56 59 63 67 70 74 77 81 83 84 82 78 74 70 68 66 64 62 61 61 61 61 60 60 59 57 55 54 54 53 52 50 50 54 57 62 69 78 86
43 46 50 54 57 61 64 68 71 74 78 81 82 82 79 76 71 68 65 64 63 61 61 62 62 61 61 60 58 57 56 54 53 53 52 51 50 50 53 57 62 69 78
44 48 52 55 59 62 65 68 72 75 78 80 81 79 76 72 69 65 64 63 62 61 62 63 62 62 61 60 58 57 56 54 52 52 52 52 51 50 49 53 56 62 70
46 49 53 56 59 63 66 69 72 75 78 79 80 77 74 70 67 64 63 62 61 62 63 63 62 61 60 59 57 55 52 50 48 47 48 50 51 50 49 49 53 57 63
47 50 54 57 60 63 66 69 72 75 77 78 78 75 72 68 65 63 62 61 61 62 63 63 62 60 59 57 55 52 48 45 42 41 43 46 48 50 48 47 49 53 57
48 51 54 57 61 64 67 69 72 74 76 77 76 73 70 66 64 62 61 61 61 62 63 62 61 60 58 56 53 49 44 39 36 35 37 41 44 47 47 46 47 49 53
49 52 55 58 61 64 66 69 71 73 75 75 74 71 68 65 63 62 61 61 61 62 63 62 61 59 57 54 51 48 43 37 32 29 30 35 40 44 45 45 45 47 50
50 53 56 58 61 64 66 69 71 72 73 73 72 70 67 64 62 61 61 61 61 62 62 62 60 58 56 53 49 46 42 37 30 23 21 27 33 38 42 43 44 45 47
51 54 56 59 61 64 66 68 70 72 72 72 70 68 65 63 61 60 60 60 61 61 62 62 60 57 55 51 47 44 41 36 28 19 14 17 24 31 36 40 41 43 45
52 54 57 59 61 64 66 68 69 71 71 71 69 67 64 62 61 60 60 60 60 60 61 61 59 57 54 49 46 42 39 33 26 16 8 9 16 23 29 35 38 40 42
52 55 57 59 62 64 66 67 69 70 70 70 68 66 63 61 60 59 59 59 59 60 60 60 59 57 54 50 45 41 36 31 23 14 6 1 8 15 22 28 33 37 40
54 56 58 60 62 64 65 67 68 69 69 69 67 65 62 61 59 58 58 58 58 59 59 60 59 56 54 50 45 40 34 28 21 13 8 3 4 9 16 22 27 32 37
55 57 59 61 62 64 65 67 68 68 69 68 66 64 62 60 59 58 58 57 57 58 58 58 58 56 54 51 46 40 33 26 19 12 7 3 2 7 13 18 22 27 33
57 58 60 61 63 64 65 66 67 68 68 67 65 64 61 59 58 57 57 57 56 57 57 57 57 56 54 51 47 40 34 26 19 12 7 3 1 6 10 15 18 23 29
60 60 61 62 63 64 65 66 67 67 67 66 65 63 61 59 58 57 56 56 56 56 56 56 56 55 54 51 47 42 35 28 20 13 8 4 2 5 9 13 17 21 25
62 63 62 62 63 64 65 66 66 67 67 66 64 62 60 59 57 57 56 55 55 55 55 55 54 54 53 51 48 44 38 30 23 16 10 6 4 4 8 12 16 19 23
63 64 64 64 63 64 65 66 66 66 66 65 64 62 60 58 57 56 55 55 54 54 54 54 53 53 52 50 48 45 41 34 26 19 13 8 6 5 7 11 15 18 21
63 65 66 65 64 64 65 66 66 66 66 65 64 62 59 57 56 55 55 54 54 54 53 53 52 52 52 50 48 46 42 38 31 22 16 11 7 7 7 10 13 17 20
63 65 67 67 65 65 65 65 65 65 65 65 63 62 59 57 56 55 54 54 54 53 53 52 52 51 51 50 48 46 43 40 35 28 20 14 9 7 8 9 12 16 19
62 65 67 68 67 65 65 65 65 65 65 65 64 62 59 57 55 54 54 53 53 53 52 51 51 51 50 49 48 46 44 42 38 33 26 19 13 8 7 9 12 15 18
62 64 66 68 68 66 65 65 65 65 64 64 63 62 59 57 55 54 53 53 52 52 51 50 49 49 49 48 47 46 45 42 40 36 30 23 16 10 6 7 11 14 17
61 63 65 67 68 67 65 65 65 65 64 63 63 62 60 57 55 53 52 52 51 51 50 49 48 48 47 47 46 46 45 43 41 38 33 27 20 13 7 5 9 13 16
61 62 64 66 68 67 66 65 64 64 63 63 62 61 60 57 55 52 52 51 50 50 49 49 48 47 47 46 46 45 44 43 42 39 35 30 24 17 10 5 6 11 15
60 61 63 65 67 67 66 65 64 63 63 62 62 61 59 57 55 53 51 50 50 50 49 49 48 47 46 46 46 46 45 43 42 40 37 32 27 20 13 7 4 8 13
59 60 61 63 65 67 66 65 63 63 62 61 61 60 59 57 54 52 51 51 50 50 49 48 48 47 46 46 45 45 44 43 42 40 37 34 29 23 17 10 3 5 10
Wind_Direction
329 329 329 328 328 328 328 327 327 326 326 325 324 324 324 324 324 324 324 323 322 321 320 318 315 311 308 304 300 295 290 284 278 272 266 260 256 251 246 240 235 231 228
331 331 331 330 330 330 329 329 328 327 327 326 326 326 326 326 327 326 326 326 325 324 323 320 317 314 311 307 303 298 292 285 278 272 265 258 254 252 247 242 237 232 228
332 332 332 332 331 331 330 330 329 328 328 328 328 328 328 329 329 329 328 328 327 326 325 322 320 317 314 310 306 300 293 287 279 272 265 257 250 249 247 243 238 233 228
334 333 333 333 332 332 331 331 330 330 330 330 330 330 331 331 331 331 331 330 330 329 327 325 323 321 318 315 310 304 297 289 280 271 264 256 249 245 243 242 239 234 229
335 334 334 334 333 333 332 332 332 332 332 331 332 332 333 333 333 333 333 333 332 331 331 329 327 326 323 320 317 311 304 295 284 272 262 254 247 242 239 238 238 234 230
335 335 335 335 335 334 334 334 333 333 333 333 334 335 335 335 336 336 336 335 335 335 335 334 332 331 329 327 324 320 312 302 289 275 261 251 244 239 236 234 235 234 230
336 336 336 336 336 336 335 335 335 335 335 336 336 337 337 337 338 338 338 338 338 339 339 338 337 336 335 334 332 329 323 313 298 280 262 250 241 237 234 232 230 231 230
338 337 337 337 337 337 337 337 337 337 337 338 338 339 339 339 339 340 340 341 341 342 343 342 342 341 341 340 339 338 334 326 313 291 265 248 238 233 231 229 227 227 227
339 339 339 339 339 338 338 338 338 338 339 340 340 340 341 341 342 342 343 344 344 345 346 346 346 345 345 345 344 344 342 337 328 306 272 247 235 230 228 226 225 224 223
341 340 340 340 340 340 339 339 340 340 341 341 342 342 343 343 344 344 345 346 347 348 349 350 350 349 349 349 348 348 348 346 341 324 287 246 232 226 224 223 222 221 221
342 342 342 341 341 341 341 341 341 342 343 343 344 344 344 345 346 346 347 348 349 351 352 353 353 353 353 353 352 352 352 353 350 343 315 247 226 221 219 219 219 219 218
344 344 343 343 342 342 342 342 343 344 344 345 345 346 346 347 348 348 349 350 352 353 355 356 356 356 357 357 356 355 358 360 2 7 11 241 214 215 214 215 217 217 216
346 345 345 344 344 343 344 344 344 345 346 346 347 347 348 349 350 350 351 352 354 355 356 358 359 359 360 0 359 0 2 6 12 23 38 72 182 204 209 212 215 215 215
347 346 346 346 345 345 345 345 346 346 347 348 348 349 349 350 351 352 353 354 355 357 358 359 1 2 2 3 4 5 5 7 14 25 36 55 177 200 204 210 214 214 214
350 348 347 347 346 346 346 346 347 348 348 349 349 350 351 351 352 353 354 355 356 358 359 1 2 4 5 5 7 7 8 8 12 19 29 22 253 212 209 211 213 214 213
352 350 348 347 347 347 347 347 348 349 349 350 351 351 352 352 353 354 355 356 358 359 1 2 3 5 6 7 8 9 8 8 7 7 7 1 305 227 218 215 214 213 212
354 352 350 348 348 348 348 348 349 349 350 351 352 352 353 353 354 355 356 357 359 360 1 3 4 5 6 8 9 9 9 8 6 359 350 336 305 256 229 219 215 212 211
354 353 351 350 349 348 349 349 349 350 351 352 353 353 353 354 355 356 357 358 359 0 2 4 5 6 7 8 9 10 10 9 6 2 353 336 303 272 241 222 215 211 210
352 353 352 351 349 349 349 349 350 350 351 352 353 354 354 355 356 356 358 359 360 1 2 4 5 7 7 8 9 10 10 10 8 2 356 342 314 282 254 230 217 211 209
351 351 352 351 350 349 349 350 350 351 352 352 353 354 354 355 356 357 358 359 0 1 3 4 5 6 7 8 9 9 10 10 9 6 359 348 329 294 262 237 220 213 209
349 350 351 351 350 349 349 350 350 351 351 352 353 354 355 355 356 357 358 359 0 1 3 3 4 6 7 8 9 9 10 11 10 8 4 356 344 321 279 242 224 216 210
347 348 350 350 351 350 349 350 350 350 351 352 353 354 355 356 356 357 358 359 0 1 3 3 4 5 6 7 8 10 10 11 10 9 7 3 355 338 306 251 227 218 211
345 346 348 349 350 350 349 349 350 350 351 352 353 354 354 355 356 357 358 359 0 1 2 3 3 5 6 7 8 9 10 10 10 10 9 7 3 353 329 274 232 218 211
342 344 346 347 349 349 349 349 349 349 350 352 353 354 354 355 356 357 357 358 360 1 1 2 3 4 5 6 8 9 10 10 10 10 10 9 8 3 349 310 244 221 212
340 342 344 346 347 348 348 348 348 349 350 351 352 353 354 354 355 356 357 358 359 360 1 2 3 4 4 5 7 8 9 9 10 10 10 10 9 8 3 343 270 222 212
337 339 342 344 345 347 347 348 348 348 349 350 352 353 354 354 354 355 356 357 358 359 0 1 2 3 4 4 5 6 7 8 8 9 9 10 10 9 7 1 328 222 207